Regional Weather Roundup
Issued by NWS State College, PA

Home | Current Version | Previous Version | Graphics & Text | Print | Product List | Glossary On
Versions: 1 2 3 4 5 6 7 8 9 10 11 12 13 14 15 16 17 18 19 20 21 22 23 24 25 26 27 28 29 30 31 32 33 34 35 36 37 38 39 40 41 42 43 44 45 46 47 48 49 50
000
ASUS41 KCTP 172110
RWRCTP

REGIONAL WEATHER ROUNDUP
NATIONAL WEATHER SERVICE STATE COLLEGE PA
400 PM EST SAT FEB 17 2018

Note: "fair" indicates few or no clouds below 12,000 feet with no
significant weather and/or obstructions to visibility.

* = STATION THAT DOES NOT REPORT PRECIPITATION /E.G. RAIN...SNOW...ETC/
    THUNDER OR FOG.

PAZ002>004-007>009-013>016-020>023-029>032-172200-
WESTERN PENNSYLVANIA

CITY           SKY/WX    TMP DP  RH WIND       PRES   REMARKS
ERIE           CLOUDY    32  19  58 SW6       30.05S
MEADVILLE      CLOUDY    28  21  75 VRB3      30.01S
FRANKLIN*      LGT SNOW  27  25  93 S7        30.00F VSB 3/4
NEW CASTLE     LGT SNOW  30  29  96 SE5       30.03F VSB 1
BEAVER COUNTY  LGT SNOW  30  28  93 CALM      30.01F
BUTLER*        SNOW      30  29  96 SE6       30.02F VSB 1/2
PITTSBURGH INT SNOW      31  31 100 SE7       30.00F VSB 1/2
PITTSBURGH     SNOW      32  29  88 SE5       30.00F VSB 1/2
INDIANA*       FOG       32  30  93 S5G13     30.07F VSB 1/4
LATROBE        LGT SNOW  32  32 100 S7        30.03F VSB 1
WASHINGTON CO* SNOW      34  30  86 CALM      30.05S VSB 1/2
$$

PAZ004>006-010>012-017>019-024>028-033>037-041-042-045-046-049>053-172200-
CENTRAL PENNSYLVANIA

CITY           SKY/WX    TMP DP  RH WIND       PRES   REMARKS
BRADFORD       CLOUDY    29  19  66 S9G21     29.98S
DUBOIS         SNOW      28  25  88 SE7       29.99F VSB 1/2
CLEARFIELD     LGT SNOW  29  27  92 CALM      30.06S VSB 3/4
JOHNSTOWN      SNOW      27  24  89 SE8       29.99F VSB 1/4
ALTOONA        SNOW      29  27  92 S9        30.07F VSB 1/2
STATE COLLEGE  LGT SNOW  28  27  93 S6        30.09F VSB 3/4
WILLIAMSPORT   LGT SNOW  32  25  75 SE15G29   30.15F
SELINSGROVE    SNOW      30  28  92 S5        30.19S VSB 1/4
FT INDIANTOWN  LGT SNOW  32  30  93 S8        30.20R FOG
CAPITAL CITY   LGT SNOW  36  26  67 SE9       30.19R VSB 1
HARRISBURG     FLURRIES  37  24  59 S12       30.18S
YORK           LGT SNOW  35  26  69 S6G17     30.18F
$$

PAZ038>040-043-044-047-048-054-055-060>062-067>071-172200-
EASTERN PENNSYLVANIA

CITY           SKY/WX    TMP DP  RH WIND       PRES   REMARKS
SCRANTON       CLOUDY    34  19  54 VRB3      30.14F
MOUNT POCONO   NOT AVBL
ALLENTOWN      CLOUDY    39  20  46 S8        30.19F
QUAKERTOWN*    MOCLDY    37  21  52 SE8G16    30.16F
READING        CLOUDY    37  21  52 S13       30.18F
LANCASTER      CLOUDY    37  23  56 S12G21    30.19F
COATESVILLE    MOCLDY    36 N/A N/A SE8       30.21F
POTTSTOWN      CLOUDY    37  20  50 SE8       30.18F
BLUE BELL      CLOUDY    37  27  65 SE3       30.22F
DOYLESTOWN     CLOUDY    38  22  52 S9G17     30.18F
WILLOW GROVE   NOT AVBL
NORTH PHILA    FAIR      42  27  55 SE9       30.24F
PHILADELPHIA   CLOUDY    41  25  53 S7        30.23F
$$




USA.gov is the U.S. government's official web portal to all federal, state and local government web resources and services.